Torna al catalogo

DELTA 1 DEB

AttivoSSO
NORAD 21284·DEBRIS·🇺🇸 United States

Lanciato Jun 12, 1975 da Vandenberg Space Force Base

Loading…

Prossimi Passaggi (prossime 24 ore)

TLE

AggiornatoSource: Space-Track

Epoca: Sep 14, 2026, 04:29 UTC

1 21284U 75052V   26257.18708198  .00000036  00000-0  16098-3 0  9996
2 21284  99.8284 331.9329 0077771 141.0512 246.1919 13.31385798717434

Traccia DELTA 1 DEB in tempo reale con AllMySat

Download on the App Store